User: anonymous   Login
Location: Unspecified
(0.0000°N, 0.0000°E)
Time: 11:37:13
(UTC+02:00)
Language:

Sapphire - Orbit

View from above orbital plane
View from above orbital plane
View from above satellite
View from above satellite

Ground track
Ground track

The orbit data is extracted from the following two-line orbital elements,

1 26932U 01043D   15145.50260130 -.00000011  00000-0  27554-4 0  9993
2 26932 067.0567 236.9370 0006346 248.9787 111.0635 14.30145820712598
Epoch (UTC): 25 May 2015 12:03:44
Eccentricity: 0.0006346
inclination: 67.0567°
perigee height: 786 km
apogee height: 796 km
right ascension of ascending node: 236.9370°
argument of perigee: 248.9787°
revolutions per day: 14.30145820
mean anomaly at epoch: 111.0635°
orbit number at epoch: 71259

The dashed part of the orbit path shows where the satellite is in the earth's shadow,  

DLR